Stations météo

Publicité
Kleine Brogel, Belgique (6479): Température de l'air & dewpoint: 20.06.2019 19:00:00 - 26.06.2019 19:00:00 (CEST)Kleine Brogel, Belgique (6479): Vitesse du vent & gusts: 20.06.2019 19:00:00 - 26.06.2019 19:00:00 (CEST)Kleine Brogel, Belgique (6479): Direction du vent: 20.06.2019 19:00:00 - 26.06.2019 19:00:00 (CEST)Kleine Brogel, Belgique (6479): reduced air pressure: 20.06.2019 19:00:00 - 26.06.2019 19:00:00 (CEST)Kleine Brogel, Belgique (6479): visibility: 20.06.2019 19:00:00 - 26.06.2019 19:00:00 (CEST)
Date & Time tt [°C] td [°C] ff [km/h] ff [knt] fx [km/h] fx [knt] dd ppp [hPa] vv [km]
26.06.2019 19:00:00 25,3 17,8 18 10 29 16 N 1025,0 20
26.06.2019 18:00:00 26,9 18,2 14 8 22 12 N 1024,9 20
26.06.2019 17:00:00 27,1 18,6 11 6 - - N 1025,0 10
26.06.2019 16:00:00 27,3 19,3 11 6 22 12 N 1025,4 12
26.06.2019 15:00:00 27,9 19,3 11 6 22 12 NW 1025,7 12
26.06.2019 14:00:00 26,9 19,3 7 4 - - NNW 1025,2 8
26.06.2019 13:00:00 25,1 18,7 7 4 18 10 NNW 1025,7 5
26.06.2019 12:00:00 21,7 17,5 7 4 14 8 NW 1025,7 4,0
26.06.2019 11:00:00 22,3 17,6 7 4 - - N 1025,5 4,0
26.06.2019 10:00:00 20,6 16,9 11 6 14 8 NW 1025,2 3,5
26.06.2019 09:00:00 19,5 17,1 4 2 14 8 N 1024,7 2,8
26.06.2019 08:00:00 18,6 16,9 7 4 - - WNW 1024,2 2,4
26.06.2019 07:00:00 17,9 16,9 11 6 14 8 W 1024,0 1,8
26.06.2019 06:00:00 17,7 17,0 7 4 11 6 W 1023,2 1,6
26.06.2019 05:00:00 18,2 17,3 4 2 - - N 1022,6 1,8
26.06.2019 04:00:00 19,1 17,7 7 4 14 8 WSW 1022,1 3,2
26.06.2019 03:00:00 20,6 18,3 7 4 11 6 W 1021,7 6
26.06.2019 02:00:00 21,3 19,2 4 2 - - N 1021,3 8
26.06.2019 01:00:00 22,7 19,2 4 2 14 8 N 1021,1 11
26.06.2019 00:00:00 23,9 19,3 7 4 18 10 WNW 1020,8 18
25.06.2019 23:00:00 26,3 21,3 11 6 - - NW 1020,2 16
25.06.2019 22:00:00 27,6 19,8 4 2 11 6 N 1019,0 6
25.06.2019 21:00:00 29,8 19,7 7 4 18 10 SW 1018,2 20
25.06.2019 20:00:00 31,1 18,5 14 8 - - SW 1017,8 20
25.06.2019 19:00:00 32,8 19,3 14 8 22 12 WSW 1017,2 20
25.06.2019 18:00:00 33,4 19,3 14 8 32 18 WSW 1017,0 20
25.06.2019 17:00:00 33,9 19,0 22 12 - - SW 1016,7 20
25.06.2019 16:00:00 34,5 19,5 14 8 25 14 SW 1016,2 20
25.06.2019 15:00:00 34,6 18,5 14 8 25 14 SSW 1016,1 20
25.06.2019 14:00:00 33,7 19,0 11 6 - - S 1016,2 20
25.06.2019 13:00:00 32,9 19,1 7 4 18 10 SSW 1016,2 20
25.06.2019 12:00:00 31,9 19,4 4 2 18 10 N 1016,2 20
25.06.2019 11:00:00 28,8 19,6 7 4 - - ESE 1016,1 20
25.06.2019 10:00:00 26,6 18,8 7 4 14 8 ESE 1016,2 20
25.06.2019 09:00:00 23,7 18,1 4 2 11 6 N 1016,2 20
25.06.2019 08:00:00 22,5 17,4 4 2 - - N 1016,2 20
25.06.2019 07:00:00 22,2 17,1 4 2 11 6 N 1016,3 20
25.06.2019 06:00:00 21,2 17,4 4 2 11 6 N 1016,2 20
25.06.2019 05:00:00 21,5 17,4 4 2 - - N 1016,2 20
25.06.2019 04:00:00 21,8 17,4 4 2 7 4 N 1016,5 20
25.06.2019 03:00:00 22,2 17,6 4 2 4 2 N 1017,0 20
25.06.2019 02:00:00 22,4 18,0 4 2 - - N 1017,2 20
25.06.2019 01:00:00 23,7 17,8 4 2 7 4 N 1017,3 20
25.06.2019 00:00:00 22,3 18,8 4 2 7 4 N 1017,2 20
24.06.2019 23:00:00 23,8 18,8 2 1 - - - 1017,2 10
24.06.2019 22:00:00 25,6 19,4 4 2 4 2 N 1017,2 20
24.06.2019 21:00:00 27,2 19,5 4 2 7 4 N 1017,0 20
24.06.2019 20:00:00 28,7 17,3 4 2 - - N 1016,7 20
24.06.2019 19:00:00 30,4 16,6 4 2 11 6 N 1017,2 20
24.06.2019 18:00:00 32,1 17,0 4 2 14 8 N 1017,2 20
24.06.2019 17:00:00 31,7 15,5 4 2 - - N 1017,2 20
24.06.2019 16:00:00 31,8 17,5 7 4 18 10 E 1017,2 20
24.06.2019 15:00:00 31,1 16,9 4 2 25 14 N 1017,5 20
24.06.2019 14:00:00 30,2 18,3 11 6 - - ESE 1017,5 20
24.06.2019 13:00:00 28,8 17,9 11 6 25 14 ENE 1017,7 20
24.06.2019 12:00:00 28,0 17,8 11 6 25 14 E 1018,1 20
24.06.2019 11:00:00 27,4 18,0 11 6 - - E 1018,1 20
24.06.2019 10:00:00 25,9 17,3 7 4 14 8 ESE 1018,3 20
24.06.2019 09:00:00 24,0 16,4 7 4 18 10 ESE 1018,3 20
24.06.2019 08:00:00 21,9 15,4 7 4 - - E 1018,2 20
24.06.2019 07:00:00 20,1 14,4 4 2 14 8 N 1018,2 20
24.06.2019 06:00:00 20,1 13,8 4 2 11 6 N 1018,2 20
24.06.2019 05:00:00 20,2 14,0 4 2 - - N 1018,2 20
24.06.2019 04:00:00 20,8 14,3 7 4 14 8 E 1018,1 20
24.06.2019 03:00:00 20,8 15,4 4 2 11 6 N 1018,2 20
24.06.2019 02:00:00 21,5 15,6 4 2 - - N 1018,3 20
24.06.2019 01:00:00 22,6 15,6 4 2 4 2 N 1018,1 20
24.06.2019 00:00:00 22,3 16,0 4 2 4 2 N 1017,8 20
23.06.2019 23:00:00 21,8 16,9 4 2 - - N 1017,7 20
23.06.2019 22:00:00 24,6 15,6 4 2 11 6 N 1017,2 20
23.06.2019 21:00:00 26,3 15,6 7 4 14 8 E 1016,7 20
23.06.2019 20:00:00 27,2 15,4 7 4 - - E 1016,6 20
23.06.2019 19:00:00 28,1 15,8 11 6 25 14 E 1016,6 20
23.06.2019 18:00:00 28,4 15,4 11 6 25 14 E 1016,7 20
23.06.2019 17:00:00 29,0 15,8 11 6 - - ESE 1016,8 20
23.06.2019 16:00:00 29,0 15,7 14 8 32 18 ESE 1017,2 20
23.06.2019 15:00:00 28,1 15,3 14 8 36 19 ESE 1017,6 20
23.06.2019 14:00:00 27,1 15,3 18 10 - - E 1017,8 20
23.06.2019 13:00:00 27,7 15,5 16 9 29 16 E 1018,1 10
23.06.2019 12:00:00 26,1 15,3 11 6 22 12 E 1018,6 1,8
23.06.2019 11:00:00 25,4 16,1 11 6 - - ENE 1018,5 1,1
23.06.2019 10:00:00 23,3 15,5 11 6 18 10 E 1019,0 6
23.06.2019 09:00:00 21,0 15,2 7 4 11 6 ESE 1019,2 18
23.06.2019 08:00:00 18,5 14,0 4 2 - - N 1019,2 18
23.06.2019 07:00:00 16,2 13,2 4 2 7 4 N 1019,1 19
23.06.2019 06:00:00 13,7 12,2 4 2 4 2 N 1019,1 17
23.06.2019 05:00:00 14,0 12,2 4 2 - - N 1019,3 19
23.06.2019 04:00:00 14,0 11,9 4 2 14 8 N 1019,2 19
23.06.2019 03:00:00 15,1 11,9 7 4 14 8 NE 1019,2 20
23.06.2019 02:00:00 15,6 12,0 4 2 - - N 1019,2 20
23.06.2019 01:00:00 16,5 12,1 7 4 11 6 NNE 1019,5 20
23.06.2019 00:00:00 17,1 12,3 4 2 7 4 N 1019,6 20
22.06.2019 23:00:00 17,7 12,4 4 2 - - N 1019,3 20
22.06.2019 22:00:00 19,2 12,6 4 2 14 8 N 1019,1 20
22.06.2019 21:00:00 21,3 12,6 7 4 18 10 NNE 1018,7 20
22.06.2019 20:00:00 22,5 11,6 11 6 - - NE 1018,8 20
22.06.2019 19:00:00 23,7 11,6 11 6 22 12 NE 1019,0 20
22.06.2019 18:00:00 24,3 10,7 7 4 18 10 NE 1019,1 20
22.06.2019 17:00:00 24,6 11,9 15 8 - - NE 1019,7 3,9
22.06.2019 16:00:00 23,0 11,2 14 8 25 14 NE 1020,1 19
22.06.2019 15:00:00 23,6 12,3 11 6 25 14 NE 1020,3 20
22.06.2019 14:00:00 23,1 13,1 14 8 - - ENE 1020,7 20
22.06.2019 13:00:00 22,9 11,4 14 8 25 14 ENE 1021,3 13
22.06.2019 12:00:00 20,8 12,7 14 8 25 14 NNE 1021,7 20
22.06.2019 11:00:00 20,3 12,9 14 8 - - NNE 1022,0 17
22.06.2019 10:00:00 18,9 13,3 7 4 14 8 N 1022,2 17
22.06.2019 09:00:00 16,0 12,3 7 4 11 6 NNE 1022,5 16
22.06.2019 08:00:00 13,5 10,8 4 2 - - N 1022,5 16
22.06.2019 07:00:00 11,2 9,8 4 2 7 4 N 1022,7 13
22.06.2019 06:00:00 9,6 8,8 4 2 4 2 N 1022,7 14
22.06.2019 05:00:00 10,1 9,2 4 2 - - N 1022,8 10
22.06.2019 04:00:00 10,8 9,4 4 2 4 2 N 1022,8 19
22.06.2019 03:00:00 11,3 9,4 4 2 4 2 N 1023,2 20
22.06.2019 02:00:00 10,3 8,9 0 0 - - N 1023,2 20
22.06.2019 01:00:00 11,6 9,0 4 2 0 0 N 1023,2 20
22.06.2019 00:00:00 12,8 8,6 4 2 4 2 N 1023,1 20
21.06.2019 23:00:00 13,6 8,1 4 2 - - N 1022,6 20
21.06.2019 22:00:00 15,8 8,3 7 4 18 10 N 1021,8 20
21.06.2019 21:00:00 17,7 8,5 11 6 22 12 NNW 1021,2 20
21.06.2019 20:00:00 19,3 8,3 7 4 - - WNW 1020,7 20
21.06.2019 19:00:00 19,6 9,5 7 4 18 10 NW 1020,6 20
21.06.2019 18:00:00 20,3 9,4 7 4 18 10 NNW 1020,3 20
21.06.2019 17:00:00 21,1 9,9 11 6 - - W 1020,3 20
21.06.2019 16:00:00 20,4 10,2 14 8 29 16 WSW 1020,2 20
21.06.2019 15:00:00 21,5 9,8 11 6 29 16 W 1020,1 20
21.06.2019 14:00:00 21,3 10,6 18 10 - - SW 1020,0 20
21.06.2019 13:00:00 19,8 9,9 11 6 25 14 SW 1020,0 20
21.06.2019 12:00:00 18,1 9,4 14 8 29 16 WSW 1020,1 20
21.06.2019 11:00:00 18,7 11,9 14 8 - - W 1019,7 20
21.06.2019 10:00:00 16,3 10,9 15 8 22 12 SW 1019,7 10
21.06.2019 09:00:00 14,1 10,9 11 6 22 12 WSW 1019,6 20
21.06.2019 08:00:00 12,7 10,8 15 8 - - WSW 1019,1 10
21.06.2019 07:00:00 11,5 9,4 11 6 14 8 SW 1018,7 20
21.06.2019 06:00:00 10,3 8,9 4 2 7 4 N 1018,6 20
21.06.2019 05:00:00 10,6 8,8 4 2 - - N 1018,2 20
21.06.2019 04:00:00 11,2 9,0 4 2 7 4 N 1018,1 20
21.06.2019 03:00:00 11,9 9,8 7 4 7 4 SW 1017,8 20
21.06.2019 02:00:00 11,8 10,8 4 2 - - N 1017,6 14
21.06.2019 01:00:00 12,5 11,2 4 2 7 4 N 1017,2 20
21.06.2019 00:00:00 12,8 11,9 4 2 7 4 N 1016,8 20
20.06.2019 23:00:00 14,3 12,2 4 2 - - N 1016,5 20
20.06.2019 22:00:00 15,8 12,9 4 2 11 6 N 1015,8 20
20.06.2019 21:00:00 17,6 12,3 4 2 14 8 N 1015,3 20
20.06.2019 20:00:00 18,2 12,6 7 4 - - W 1014,6 20
20.06.2019 19:00:00 18,5 14,5 7 4 36 19 W 1014,1 19

tt = Température de l'air
td = dewpoint
ff = Vitesse du vent
fx = gusts
dd = Direction du vent
ppp = reduced air pressure
vv = visibility

stations d'obs. à proximité